Wausau, WI

6:00 PM CDT on March 25, 2017 (GMT -0500)
Wausau Downtown

Weather History for KAUW - October, 2012

Change the Weather History Date:

Friday, October 26, 2012

  Actual Average Record
Temperature  
Mean Temperature 36 °F 42 °F  
Max Temperature 40 °F 51 °F 76 °F (1989)
Min Temperature 32 °F 34 °F 16 °F (1942)
Degree Days  
Heating Degree Days 29 23  
Month to date heating degree days 447 471  
Since 1 July heating degree days 717 764  
Cooling Degree Days 0 0  
Month to date cooling degree days 0 0  
Year to date cooling degree days 725 405  
Moisture  
Dew Point 25 °F    
Average Humidity 67    
Maximum Humidity 82    
Minimum Humidity 52    
Precipitation  
Precipitation 0.00 in 0.07 in 1.57 in (1941)
Month to date precipitation 5.49 2.56  
Year to date precipitation 26.58 28.67  
Snow  
Snow 0.00 in 0.00 in 1.00 in (1917)
Month to date snowfall T 1.0  
Since 1 July snowfall T 1.0  
Snow Depth 0.00 in    
Sea Level Pressure  
Sea Level Pressure 30.28 in    
Wind  
Wind Speed 11 mph (West)    
Max Wind Speed 22 mph    
Max Gust Speed 26 mph    
Visibility 10 miles    
Events      
T = Trace of Precipitation, MM = Missing Value Source: NWS Daily Summary

Daily Weather History Graph

Daily Weather History Graph

Search for Another Location

Airport or City:

Trip Planner

Search our weather history database for the weather conditions in past years. The results will help you decide how hot, cold, wet, or windy it might be!

Date:

Astronomy

Oct. 26, 2012 Rise Set
Actual Time 7:29 AM CDT 5:54 PM CDT
Civil Twilight 6:59 AM CDT 6:24 PM CDT
Nautical Twilight 6:24 AM CDT 6:59 PM CDT
Astronomical Twilight 5:50 AM CDT 7:33 PM CDT
Moon 4:15 PM CDT (10/26) 4:19 AM CDT (10/26)
Length of Visible Light 11h 25m
Length of Day
10h 25m
Waxing Gibbous, 91% of the Moon is Illuminated
Oct 26
Waxing Gibbous
Oct 29
Full
Nov 6
Last Quarter
Nov 13
New
Nov 20
First Quarter

Hourly Weather History & Observations

Time (CDT) Temp. Windchill Dew Point Humidity Pressure Visibility Wind Dir Wind Speed Gust Speed Precip Events Conditions
1:54 AM 34.0 °F 26.6 °F 27.0 °F 75% 30.09 in 10.0 mi West 9.2 mph - N/A   Partly Cloudy
2:54 AM 34.0 °F 26.0 °F 27.0 °F 75% 30.12 in 10.0 mi West 10.4 mph - N/A   Clear
3:54 AM 33.1 °F 24.9 °F 27.0 °F 78% 30.14 in 10.0 mi West 10.4 mph - N/A   Clear
4:54 AM 32.0 °F 23.6 °F 26.1 °F 79% 30.15 in 10.0 mi West 10.4 mph - N/A   Clear
6:54 AM 32.0 °F 23.6 °F 26.1 °F 79% 30.21 in 10.0 mi West 10.4 mph - N/A   Clear
7:54 AM 32.0 °F 23.6 °F 26.1 °F 79% 30.24 in 10.0 mi West 10.4 mph - N/A   Clear
8:54 AM 34.0 °F 26.0 °F 27.0 °F 75% 30.28 in 10.0 mi West 10.4 mph - N/A   Clear
9:54 AM 37.0 °F 28.5 °F 28.0 °F 70% 30.30 in 10.0 mi West 13.8 mph - N/A   Clear
10:54 AM 39.0 °F 30.3 °F 27.0 °F 62% 30.32 in 10.0 mi WNW 16.1 mph 19.6 mph N/A   Scattered Clouds
11:54 AM 37.0 °F 27.7 °F 25.0 °F 62% 30.33 in 10.0 mi WNW 16.1 mph 23.0 mph N/A   Overcast
12:54 PM 37.9 °F 28.5 °F 24.1 °F 57% 30.33 in 10.0 mi West 17.3 mph 21.9 mph N/A   Overcast
1:54 PM 37.9 °F 29.6 °F 26.1 °F 62% 30.32 in 10.0 mi West 13.8 mph 19.6 mph N/A   Overcast
2:54 PM 37.9 °F 30.9 °F 25.0 °F 60% 30.30 in 10.0 mi West 10.4 mph - N/A   Overcast
3:54 PM 39.0 °F 32.3 °F 24.1 °F 55% 30.30 in 10.0 mi WNW 10.4 mph - N/A   Overcast
4:54 PM 37.9 °F 30.5 °F 24.1 °F 57% 30.32 in 10.0 mi West 11.5 mph - N/A   Overcast
5:54 PM 37.0 °F 29.3 °F 24.1 °F 59% 30.32 in 10.0 mi West 11.5 mph - N/A   Overcast
6:54 PM 37.0 °F 28.5 °F 23.0 °F 57% 30.34 in 10.0 mi West 13.8 mph - N/A   Overcast
7:54 PM 37.0 °F 31.6 °F 24.1 °F 59% 30.35 in 10.0 mi WNW 6.9 mph - N/A   Overcast
8:54 PM 36.0 °F 28.0 °F 21.9 °F 57% 30.36 in 10.0 mi West 11.5 mph - N/A   Overcast
9:54 PM 36.0 °F 28.5 °F 19.9 °F 52% 30.35 in 10.0 mi WNW 10.4 mph - N/A   Overcast
10:54 PM 35.1 °F 29.3 °F 21.9 °F 59% 30.35 in 10.0 mi West 6.9 mph - N/A   Overcast
11:54 PM 35.1 °F 29.3 °F 19.9 °F 54% 30.35 in 10.0 mi NW 6.9 mph - N/A   Overcast